Regional Weather Roundup
Issued by NWS Cleveland, OH

Home | Current Version | Previous Version | Graphics & Text | Print | Product List | Glossary On
Versions: 1 2 3 4 5 6 7 8 9 10 11 12 13 14 15 16 17 18 19 20 21 22 23 24 25 26 27 28 29 30 31 32 33 34 35 36 37 38 39 40 41 42 43 44 45 46 47 48 49 50
000
ASUS41 KCLE 300812
RWRCLE
OHIO REGIONAL WEATHER ROUNDUP
NATIONAL WEATHER SERVICE WILMINGTON, OH
400 AM EDT SAT JUL 30 2016

NOTE: "FAIR" INDICATES FEW OR NO CLOUDS BELOW 12,000 FEET WITH NO
SIGNIFICANT WEATHER AND/OR OBSTRUCTIONS TO VISIBILITY.

OHZ001>008-015>018-024>027-034-035-043-044-300900-
   NORTHWEST OHIO

CITY           SKY/WX    TMP DP  RH WIND       PRES   REMARKS
DEFIANCE       FAIR      68  63  84 NE5       29.93F
FINDLAY        FAIR      72  67  84 NE5       29.92S HAZE
TOLEDO EXPRESS CLOUDY    68  62  81 NE5       29.92F
TOLEDO EXEC    CLOUDY    73  70  90 NE6       29.93S
LIMA           MOCLDY    69  68  96 NE3       29.92S FOG
$$

OHZ009>014-019>023-028>033-038-089-300900-
   NORTHEAST OHIO

CITY           SKY/WX    TMP DP  RH WIND       PRES   REMARKS
CLE-HOPKINS    MOCLDY    74  65  73 NE5       29.95F
CLE-LAKEFRONT  LGT RAIN  73  68  84 E3        29.92F
CUY CO. ARPT   NOT AVBL
LORAIN-ELYRIA  LGT RAIN  70  68  93 CALM      29.94S
ASHTABULA      CLOUDY    66  66 100 CALM      29.95F
AKRON-CANTON   CLOUDY    70  66  87 CALM      29.94F FOG
WOOSTER        FAIR      65  64  97 CALM      29.94F FOG
MANSFIELD      FAIR      69  66  90 SE3       29.93F
YOUNGSTOWN     CLOUDY    67  65  93 E6        29.94F
$$

OHZ042-051>053-060>062-070>072-077>081-300900-
  SOUTHWEST OHIO

CITY           SKY/WX    TMP DP  RH WIND       PRES   REMARKS
CINC-COVINGTON CLOUDY    70  70 100 S3        29.91S
CINC-LUNKEN    FAIR      70  70 100 CALM      29.91S FOG
HAMILTON       FAIR      69  67  93 CALM      29.91F FOG
DAYTON         MOCLDY    69  68  96 SE5       29.92S FOG
WRIGHT-PAT AFB MOCLDY    70  70 100 S1        29.91S
DAYTON GENERAL FAIR      69  66  90 S5        29.90F
WILMINGTON     FAIR      67  67 100 CALM      29.91F FOG
$$

OHZ036-037-039>041-045>050-054>059-063>069-073>076-082>088-300900-
  CENTRAL AND SOUTHEAST OHIO

CITY           SKY/WX    TMP DP  RH WIND       PRES   REMARKS
COLUMBUS       MOCLDY    71  69  93 CALM      29.90F
OSU AIRPORT    FAIR      71  69  93 SE5       29.91S
BOLTON FIELD   FAIR      69  69  99 CALM      29.92R
RICKENBACK AFB FAIR      68  68  99 NE3       29.90S
NEWARK         CLOUDY    70  69  97 CALM      29.91S FOG
MARION         FAIR      69  66  90 E3        29.92F
LANCASTER      CLOUDY    71  70  96 CALM      29.91F
ZANESVILLE     CLOUDY    72  68  87 NE3       29.91F
NEW PHILLY     RAIN      71  67  87 VRB3      29.95R FOG
$$




USA.gov is the U.S. government's official web portal to all federal, state and local government web resources and services.